Location: Haram ta Haram Freeway
(35.0583°N, 51.4202°E)
Time: 18:08:46
(UTC+03:30)

IRIDIUM 33 DEB - Pass Details

Date: 01 December 2021
Orbit: 663 x 816 km, 86.4° (Epoch: 18 January)

Event Time Altitude Azimuth Distance (km) Brightness Sun altitude
Rises 19:09:34 0° 184° (S) 3,339 ? -27.5°
Reaches altitude 10° 19:11:57 10° 186° (S) 2,412 ? -28.0°
Enters shadow 19:17:20 77° 262° (W) 842 ? -29.1°
